www.pogodaiklimat.ru

Погода и климат >> Архив погоды >> Россия >> Нижегородская область >> Большое Болдино


ПОГОДА в Большом Болдино

  • Прогноз погоды в Большом Болдино
  • Монитор погоды в Большом Болдино

АРХИВ ПОГОДЫ в Большом Болдино

Время (UTC), дата Ветер
(напр.,м/с)
 
Видим.   Явления Облачность Т
(С)
Тd
(С)
f
(%)
Тe
(С)
Тes
(С)
Комфортность P
(гПа)
Po
(гПа)
Тmin
(С)
Tmax
(С)
R
(мм)
R24
(мм)
S
(см)
18 14.05 ЮВ 2-4
{9}
20 км гроза без осадков 9/4 600 м
[Cb cap Ac cast]
+18.2 +12.8 71 +19 +19 1013.6 991.2
21 14.05 СЗ 1-1
{4}
20 км {гроза} 4/0
[Ac cast]
+16.4 +11.2 71 +17 +17 1013.7 991.1
00 15.05 Ю 1-2
{3}
20 км {гроза} 4/0
[Ac cast]
+14.8 +11.2 79 +15 +15 1014.1 991.4
03 15.05 С 1-1
{3}
20 км 8/0
[Ci fib]
+16.7 +12.9 78 +18 +19 1013.9 991.3 +14.7
06 15.05 СЗ 1-2
{4}
20 км 8/0
[Ci fib]
+22.2 +13.4 57 +25 +35 комфорт 1013.9 991.8
09 15.05 В 2-5
{5}
20 км гроза без осадков 10/4 600 м
[Cb calv Ci fib]
+25.4 +15.9 56 +29 +36 душно 1013.6 991.7
12 15.05 С 2-3
{6}
20 км {гроза, ливн. осадки} 10/8 750 м
[Cb calv Ac trans Ci fib]
+23.3 +15.7 62 +28 +29 душно 1014.0 992.0
15 15.05 З 2-3
{4}
20 км 10/3 600 м
[Cb calv Ac und]
+21.2 +15.3 69 +24 +25 комфорт 1013.7 991.5 +27.5 0.1
18 15.05 СЗ 4-6
{8}
20 км гроза без осадков 10/8 720 м
[Cb calv Ac und]
+17.5 +14.0 80 +17 +17 1015.3 992.7
21 15.05 С 2-2
{9}
10 км {гроза, ливн. осадки} 10/0
[Ac und]
+15.2 +14.1 93 +15 +15 1014.9 992.2
00 16.05 ЮЗ 2-3
{4}
10 км {гроза, ливн. осадки} 10/3 600 м
[Sc Ac trans Ci fib]
+13.3 +12.4 94 +12 +12 1014.9 992.1
03 16.05 СЗ 2-3
{4}
10 км в посл. час ливневой дождь 10/6 660 м
[Cb calv Ac und]
+14.2 +13.3 94 +14 +14 1014.7 992.0 +12.8 3
06 16.05 З 1-2
{4}
4000 м в посл. час ливневой дождь 10/10 420 м
[Cb cap]
+15.6 +14.4 93 +16 +16 1014.9 992.2
09 16.05 С 7-10
{10}
10 км слаб. ливневой дождь 10/10 400 м
[Cb cap]
+15.5 +14.1 91 +14 +14 1015.8 993.0
12 16.05 С 5-7
{10}
20 км {ливн. осадки} 10/6 500 м
[Sc Ac und]
+15.7 +12.8 83 +15 +15 1017.2 994.4
15 16.05 СВ 3-6
{9}
20 км 10/6 540 м
[Cb cap Ac trans]
+16.0 +12.0 77 +16 +16 1017.6 994.9 +17.2 4
18 16.05 СВ 1-3
{7}
20 км 8/6 480 м
[Cb cap Ac trans]
+12.6 +9.3 80 +13 +13 1019.4 996.4
21 16.05 З 2-2
{7}
20 км 8/4 300 м
[Sc diur, vesp Ac trans]
+10.0 +8.1 88 +8 +8 1020.0 996.7
00 17.05 СВ 1-3
{7}
20 км 3/0
[Ac lent Ci fib]
+7.5 +4.3 80 +7 +7 1021.5 997.9
03 17.05 С 3-5
{5}
20 км ясно +7.7 +3.4 74 +5 +7 1022.7 999.2 +5.2
06 17.05 С 4-6
{7}
20 км 3/0
[Ci fib]
+11.5 +1.9 52 +10 +16 1023.1 999.8
09 17.05 СЗ 4-7
{8}
20 км 8/0
[Ac trans Ci]
+13.1 +0.8 43 +12 +19 1022.2 999.1
12 17.05 СЗ 5-8
{9}
20 км 4/0
[Ci fib]
+14.5 +0.4 38 +13 +18 1020.8 997.8
15 17.05 СЗ 4-6
{9}
20 км 3/0
[Ci fib]
+14.3 -0.9 35 +13 +14 1019.6 996.7 +14.9
18 17.05 ЮЗ 2-3
{7}
20 км 4/0
[Ac cast]
+10.2 +0.4 51 +9 +9 1019.4 996.1
21 17.05 ЮЗ 2-3
{4}
20 км ясно +7.5 +0.2 60 +6 +6 1018.5 995.0
00 18.05 ЮЗ 2-4
{5}
20 км 4/0
[Ac und]
+6.8 +0.1 62 +5 +5 1017.4 993.8
03 18.05 ЮЗ 5-7
{7}
20 км 3/0
[Ci fib]
+8.9 +1.7 61 +6 +7 1016.0 992.7 +6.2
06 18.05 СЗ 5-8
{10}
20 км 8/0
[Ac trans Ci sp]
+14.4 +4.1 50 +13 +17 1014.8 992.0
09 18.05 СЗ 8-13
{15}
20 км 8/1 1000 м
[Cu hum Ac trans Ci fib]
+16.4 +0.2 33 +15 +17 1014.2 991.5
12 18.05 СЗ 9-13
{15}
20 км 8/0
[Ci]
+16.7 -3.6 25 +15 +16 1013.6 990.5
15 18.05 СЗ 7-9
{15}
20 км 8/0
[Ci fib]
+16.1 -1.4 30 +15 +15 1011.9 989.2 +17.1
18 18.05 С 3-4
{8}
20 км 10/0
[Ac trans Ci fib]
+9.0 -1.4 48 +7 +7 1013.7 990.5
21 18.05 ЮЗ 3-4
{4}
20 км 4/0
[Ac lent]
+8.4 0.0 55 +6 +6 1013.2 989.9
00 19.05 З 2-2
{4}
20 км 8/0
[Ac cast]
+8.5 +2.3 65 +7 +7 1013.2 989.9
03 19.05 С 6-8
{8}
20 км 8/0
[Ac As]
+7.4 +2.1 69 +3 +4 1013.9 990.5 +6.2
06 19.05 С 7-11
{11}
20 км 8/8 800 м
[Cu med, cong]
+8.7 -0.7 52 +5 +6 1014.3 991.0
09 19.05 СЗ 7-11
{11}
20 км 9/9 750 м
[Cu med, cong]
+10.8 -1.4 43 +8 +8 1014.4 991.3
12 19.05 СЗ 7-11
{12}
20 км 8/8 750 м
[Cu med, cong]
+12.4 -0.7 40 +10 +11 1014.7 991.7
15 19.05 С 6-9
{13}
20 км 9/9 750 м
[Sc]
+10.6 -1.4 43 +8 +8 1016.3 993.0 +13.4
18 19.05 СВ 2-3
{10}
20 км 1/1 600 м
[Sc]
+6.2 -0.3 63 +4 +4 1018.7 995.0
21 19.05 ЮЗ 2-2
{4}
20 км ясно +2.8 -1.1 75 -0 -0 1019.2 995.3
00 20.05 З 2-3
{4}
20 км 9/3 600 м
[Sc Ac trans]
+1.4 -1.5 81 -2 -2 1019.9 995.9
03 20.05 З 3-5
{5}
20 км 9/0
[Ac trans]
+3.4 -0.4 76 -0 0 1020.9 997.1 +1.2
06 20.05 СЗ 7-11
{11}
20 км 3/1 600 м
[Cu hum Ac lent]
+11.2 -1.9 40 +8 +10 1019.8 996.6
09 20.05 СЗ 7-10
{11}
20 км 8/8 540 м
[Sc diur, vesp]
+12.0 -0.9 41 +9 +10 1019.4 996.3
12 20.05 СЗ 6-9
{11}
20 км 8/4 600 м
[Sc diur, vesp Ac trans]
+13.4 0.0 40 +12 +13 1020.0 997.0
15 20.05 СЗ 5-7
{11}
20 км 8/0
[Ac trans]
+12.4 -0.7 40 +11 +11 1019.7 996.6 +13.5
18 20.05 С 1-2
{7}
20 км 8/0
[Ac trans]
+9.5 -1.4 46 +10 +10 1020.1 996.8
21 20.05 Ю 1-2
{2}
20 км 4/0
[Ac trans]
+7.3 +1.1 65 +7 +7 1021.6 998.0
00 21.05 ЮЗ 1-2
{2}
20 км ясно +3.2 +0.3 81 +2 +2 1022.2 998.2
03 21.05 З 2-2
{3}
20 км 3/0
[Ci fib]
+7.7 +1.1 63 +6 +8 1022.0 998.5 +3.1
06 21.05 СЗ 4-7
{7}
20 км 3/0
[Ci fib]
+14.8 +0.4 37 +14 +20 1021.3 998.3
09 21.05 СЗ 4-6
{9}
20 км 3/0
[Ci fib]
+16.6 -0.9 30 +16 +26 1020.4 997.5
12 21.05 З 5-9
{11}
20 км 4/0
[Ci fib]
+18.1 -1.2 27 +18 +23 1019.2 996.6
15 21.05 З 4-6
{9}
20 км 8/0
[Ac trans]
+16.8 -0.9 30 +16 +17 1018.2 995.4 +18.7

 

Местоположение метеостанции Большое Болдино (Нижегородская область, Россия): широта 55.02 долгота 45.32 высота над уровнем моря 192 м.

В архиве по умолчанию представлена погода в Большом Болдино за последнюю неделю. Архивные данные за месяц целиком и за предыдущие месяцы, начиная с января 2011 года, Вы можете получить, выбрав интересующий диапазон дат из раскрывающегося списка и нажав кнопку "Ввод!".


*Определитесь, кто Вы:
робот инопланетянин человек

Внимание! Время в таблицах - всемирное. Для получения местного времени необходимо прибавить поправку, которая равна 3 ч.

Смотрите также архив погоды в соседних городах и на ближайших метеорологических станциях:

Погода в Лукоянове (Нижегородская область, Россия) (52 км)
Погода в Сергаче (Нижегородская область, Россия) (58 км)
Погода в Порецком (Чувашия, Россия) (67 км)
Погода в Алатыре (Чувашия, Россия) (84 км)
Погода в Саранске (Мордовия, Россия) (99 км)
Погода в Больших Березниках (Мордовия, Россия) (104 км)
Погода в Арзамасе (Нижегородская область, Россия) (105 км)
Погода в Сурском (Ульяновская область, Россия) (107 км)
Погода в Лысково (Нижегородская область, Россия) (112 км)
Погода в Дальнем Константиново (Нижегородская область, Россия) (117 км)

Пояснения к столбцам:

Ветер - указаны скорость ветра в м/с - средняя за 10 мин, порывы в срок и между сроками (в фигурных скобках) и направление, откуда дует ветер: С - северный, СВ - северо-восточный, В - восточный, ЮВ - юго-восточный, Ю - южный, ЮЗ - юго-западный, З - западный, СЗ - северо-западный.
Видимость - горизонтальная дальность видимости в метрах или километрах. При видимости от 1 до 10 км при отсутствии осадков обычно наблюдается дымка, при ухудшении видимости до 1 км и менее - туман. В сухую погоду видимость может ухудшаться дымом, пылью или мглою.
Явления - указаны атмосферные явления, наблюдавшиеся в срок или в последний час перед сроком; фигурными скобками обозначены явления, наблюдавшиеся между сроками (за 1-3 часа до срока); квадратными скобками обозначены град или гололедные отложения с указанием их диаметра в мм.
Облачность - указаны через наклонную черту общая и нижняя облачность в баллах и высота нижней границы облаков в метрах; квадратными скобками обозначены формы облаков: Ci - перистые, Cs - перисто-слоистые, Cc - перисто-кучевые, Ac - высококучевые, As - высокослоистые, Sc - слоисто-кучевые, Ns - слоисто-дождевые, Cu - кучевые, Cb - кучево-дождевые. Подробнее классификацию облаков см. в Атласе облаков (PDF).
T - Температура воздуха - температура, измеренная на высоте 2 м над землей.
Td - Температура точки росы - температура, при понижении до которой содержащийся в воздухе водяной пар достигнет насыщения.
f - Относительная влажность воздуха - влажноcть воздуха, измеренная на высоте 2 м над землей.
Te - Эффективная температура - температура, которую ощущает одетый по сезону человек в тени. Характеристика душности погоды. При расчете учитывается влияние влажности воздуха и скорости ветра на теплоощущения человека.
Tes - Эффективная температура на солнце - температура, которую ощущает человек, с поправкой на солнечный нагрев. Характеристика знойности погоды. Зависит от высоты солнца над горизонтом, облачности и скорости ветра. Ночью, в пасмурную погоду, а также при ветре 12 м/с и более поправка равна нулю.
P - Атмосферное давление - приведенное к уровню моря атмосферное давление.
Po - Атмосферное давление - измеренное на уровне метеостанции атмосферное давление.
Tmin - Минимальная температура - минимум температуры воздуха на высоте 2 м над землей.
Tmax - Максимальная температура - максимум температуры воздуха на высоте 2 м над землей.
R - Количество осадков - Количество выпавших осадков за период времени, мм. При наведении курсора мыши на число - период времени, за который выпало указанное количество осадков.
R24 - Количество осадков - Количество выпавших осадков за 24 часа, мм.
S - Снежный покров - Высота снежного покрова, см. При наведении курсора мыши на число - состояние снежного покрова и степень покрытия местности в баллах.